Location: Banksville Park
(38.5557°N, 75.1182°W)
Time: 05:13:58
(UTC+00:00)

CENTAUR R/B - Pass Details

Date: 19 January 2021
Orbit: 742 x 1446 km, 63.5° (Epoch: 01 March)

Event Time Altitude Azimuth Distance (km) Brightness Sun altitude
Rises 22:45:02 0° 313° (NW) 4,350 6.3 -7.5°
Reaches altitude 10° 22:48:37 10° 299° (WNW) 3,454 6.0 -8.1°
Maximum altitude 22:54:41 22° 254° (WSW) 2,725 6.0 -9.3°
Drops below altitude 10° 23:00:56 10° 208° (SSW) 3,549 6.1 -10.4°
Sets 23:04:42 0° 194° (SSW) 4,500 6.4 -11.1°
